SCP
0 0 0 0 0 0 0 0 0 0 0 0 0 0 0 0 0 0 0 0 0 0 0 0 0 0 0 0 0 0 0 0 0 0 0 0 0 0 0 0 0 0 0
0 0 0 0 0 0 0 0 0 0 0 0 0 0 0 0 0 0 0 0 0 0 0 0 0 0 0 0 0 0 0 0 0 0 0 0 0 0 0 0 0 0 0
0 0 0 0 0 0 0 0 0 0 0 0 0 0 0 0 0 0 0 0 0 0 0 0 0 0 0 0 0 0 0 0 0 0 0 0 0 0 0 0 0 0 0
0 0 0 0 0 0 0 0 0 0 0 0 0 0 0 0 0 0 0 0 0 0 0 0 0 0 0 0 0 0 0 0 0 0 0 0 0 0 0 0 0 0 0
0 0 0 0 0 0 0 0 0 0 0 0 0 0 0 0 0 0 0 0 0 0 0 0 0 0 0 0 0 0 0 0 0 0 0 0 0 0 0 0 0 0 0
0 0 0 0 0 0 0 0 0 0 0 0 0 0 0 0 0 0 0 0 0 0 0 0 0 0 0 0 -0 -0 0 0 0 0 0 0 0 0 0 0 0 0 0
0 0 0 0 0 0 0 0 0 0 0 0 0 0 0 0 0 0 0 0 0 0 0 0 0 0 0 -0 -0 0 0 0 0 0 0 0 0 0 0 0 0 0 0
0 0 0 0 0 0 0 0 0 0 0 0 0 0 0 0 0 0 0 0 0 0 0 0 0 0 0 0 0 0 0 0 0 0 0 0 0 0 0 0 0 0 0
0 0 0 0 0 0 0 0 0 0 0 0 0 0 0 0 0 0 0 0 0 0 0 0 0 0 0 0 0 0 0 0 0 0 0 0 0 0 0 0 0 0 0
0 0 0 0 0 0 0 0 0 0 0 0 0 0 0 0 0 0 0 0 0 0 0 0 0 0 0 0 0 0 0 0 0 0 0 0 0 0 0 0 0 0 0
0 0 0 0 0 0 0 0 0 0 0 0 0 0 0 0 0 0 0 0 0 0 0 0 0 0 0 0 0 0 0 0 0 0 0 0 0 0 0 0 0 0 0
0 0 0 0 0 0 0 0 0 0 0 0 0 0 0 0 0 0 0 0 0 0 0 0 0 0 0 0 0 0 0 0 0 0 0 0 0 0 0 0 0 0 0
0 0 0 0 0 0 0 0 0 0 0 0 0 0 0 0 0 0 0 0 0 0 0 0 0 0 0 0 0 0 0 0 0 0 0 0 0 0 0 0 0 0 0
0 0 0 0 0 0 0 0 0 0 0 0 0 0 0 0 0 0 0 0 0 0 0 0 0 0 0 0 0 0 0 0 0 0 0 0 0 0 0 0 0 0 0
0 0 0 0 0 0 0 0 0 0 0 0 0 0 0 0 0 0 0 0 0 0 0 0 0 0 0 0 0 0 0 0 0 0 0 0 0 0 0 0 0 0 0
0 0 0 0 0 0 0 0 0 0 0 0 0 0 0 0 0 0 0 0 0 0 0 0 0 0 0 0 0 0 0 0 0 0 0 0 0 0 0 0 0 0 0
0 0 0 0 0 0 0 0 0 0 0 0 0 0 0 0 0 0 0 0 0 0 0 0 0 0 0 0 0 0 0 0 0 0 0 0 0 0 0 0 0 0 0
0 0 0 0 0 0 0 0 0 0 0 0 0 0 0 0 0 0 0 0 0 0 0 0 0 0 0 0 0 0 0 0 0 0 0 0 0 0 0 0 0 0 0
0 0 0 0 0 0 0 0 0 0 0 0 0 0 0 0 0 0 0 0 0 0 0 0 0 0 0 0 0 0 0 0 0 0 0 0 0 0 0 0 0 0 0
0 0 0 -0 -0 0 0 0 0 0 0 0 0 0 0 0 0 0 0 0 0 0 0 0 0 0 0 0 0 0 0 0 0 0 0 0 0 0 0 0 0 0 0
0 0 -0 -0 -0 -0 0 0 0 0 0 0 0 0 0 0 0 0 0 0 0 0 0 0 0 0 0 0 0 0 0 0 0 0 0 0 0 0 0 0 0 0 0
0 0 -0 -0 -0 -0 0 0 0 0 0 0 0 0 0 0 0 0 0 0 0 0 0 0 0 0 0 0 0 0 0 0 0 0 0 0 0 0 0 0 0 0 0
0 0 -0 -0 -0 -0 -0 0 0 0 0 0 0 0 0 0 0 0 0 0 0 0 0 0 0 0 0 0 0 0 0 0 0 0 0 0 0 0 0 0 0 0 0
0 0 0 -0 -0 -0 -0 0 0 0 0 0 0 0 0 0 0 0 0 0 0 0 0 0 0 0 0 0 0 0 0 0 0 0 0 0 0 0 0 0 0 0 0
0 0 0 0 -0 -0 0 0 0 0 0 0 0 0 0 0 0 0 0 0 0 0 0 0 0 0 0 0 0 0 0 0 0 0 0 0 0 0 0 0 0 0 0
0 0 0 0 -0 -0 -0 0 0 0 0 0 0 0 0 0 0 0 0 0 0 0 0 0 0 0 0 0 0 0 0 0 0 0 0 0 0 0 0 0 0 0 0
Wind_Speed
7 6 5 5 5 5 4 4 4 3 3 3 3 3 2 2 1 1 1 1 2 2 2 2 1 1 2 2 2 2 2 2 2 1 1 1 1 1 2 2 1 0 1
7 7 6 5 5 5 5 5 4 4 4 4 3 3 3 3 2 2 2 1 1 1 1 1 1 1 2 2 2 2 2 2 3 1 1 1 1 1 1 1 2 1 1
7 7 6 6 6 6 6 5 4 4 3 3 3 4 4 4 3 3 3 2 1 1 2 2 2 2 2 1 2 2 1 2 2 2 0 1 1 1 2 2 2 2 2
8 8 8 7 7 7 6 5 5 5 4 4 4 4 4 4 4 4 3 2 1 1 2 2 3 3 3 2 2 2 2 2 2 2 1 1 1 2 2 2 2 2 2
8 8 9 8 7 6 6 6 5 5 5 5 4 4 4 4 4 5 4 4 2 1 1 2 3 4 5 4 3 3 3 2 2 2 1 1 1 1 1 1 1 2 2
10 10 9 7 7 7 7 6 5 5 4 4 4 4 4 4 6 9 7 4 3 2 2 1 2 3 4 5 5 5 5 4 3 2 1 1 1 1 1 0 0 1 2
10 10 9 8 8 8 7 6 6 6 5 5 5 4 4 5 7 8 9 5 4 3 3 2 2 2 3 2 2 3 2 3 5 4 3 3 3 3 2 1 1 1 2
10 10 9 9 9 8 7 7 7 5 5 5 5 5 5 5 8 8 8 4 3 3 3 4 3 3 3 4 3 2 1 2 3 3 4 4 3 3 3 3 2 1 3
10 10 10 10 9 8 8 8 6 5 5 5 4 5 5 5 8 8 7 3 2 3 3 3 4 4 6 6 4 3 1 2 2 3 4 3 3 3 3 2 1 1 2
11 11 10 10 11 11 10 8 6 5 6 5 4 4 5 5 6 8 8 4 3 2 1 2 3 4 5 7 5 5 3 2 0 1 1 2 2 2 1 3 3 2 1
8 8 9 10 11 11 9 7 6 6 5 5 4 4 4 5 5 7 9 5 5 3 2 2 2 3 5 6 6 4 5 3 2 2 1 1 2 2 2 0 2 3 2
5 7 9 10 10 9 8 8 7 7 6 5 4 3 2 2 3 5 8 8 7 5 3 3 2 3 4 6 5 4 5 5 3 2 2 1 1 1 1 1 0 1 2
4 7 9 9 9 8 10 9 7 7 6 6 5 5 3 2 2 5 6 8 9 5 3 5 4 4 4 4 5 6 5 3 3 2 2 0 0 1 1 1 2 2 2
5 6 6 8 8 7 7 8 8 8 7 7 6 6 4 3 3 2 2 4 6 5 3 4 5 6 5 4 4 3 2 2 3 2 2 1 1 1 2 2 2 2 2
5 5 5 6 7 7 7 6 9 9 10 10 8 8 7 7 7 9 6 5 5 5 5 3 2 2 3 2 2 2 2 2 2 2 2 2 1 2 2 2 1 2 1
5 5 4 4 5 5 6 3 0 3 9 12 12 10 7 9 12 12 11 10 10 11 7 4 3 3 4 3 3 2 2 2 2 2 2 2 1 1 1 2 2 1 1
6 5 4 4 5 6 7 8 5 1 2 7 12 14 12 13 14 13 12 11 11 11 5 4 4 4 4 3 3 3 2 2 2 2 2 2 1 1 1 1 1 1 1
7 6 5 5 6 7 7 8 8 8 6 3 5 11 13 15 14 14 13 10 5 5 4 5 5 4 4 4 4 3 3 2 2 2 2 2 1 1 1 0 0 1 1
7 5 5 5 5 6 6 6 7 8 7 5 4 5 10 11 12 12 12 6 6 5 5 5 5 5 4 4 4 4 4 3 3 2 2 2 1 1 1 0 1 2 1
7 11 9 5 5 5 6 7 7 8 8 8 8 8 7 7 6 7 6 5 6 6 6 6 5 5 5 5 4 4 3 3 3 2 2 2 1 1 1 0 1 1 2
7 8 10 7 5 6 7 8 9 9 10 10 9 10 15 10 9 9 8 7 7 7 7 6 6 6 5 5 4 5 5 3 3 3 2 2 1 1 1 1 1 2 2
6 6 6 6 6 6 7 8 8 9 10 11 7 9 18 8 8 8 8 7 7 6 7 7 6 5 6 6 6 5 5 4 4 3 3 2 1 1 1 1 1 2 3
7 7 7 7 6 8 7 7 8 9 9 10 10 10 11 9 9 8 8 7 7 6 6 6 6 5 4 4 5 6 6 5 4 4 4 2 2 1 1 2 3 3 4
7 8 8 7 7 6 7 8 8 9 10 10 10 10 11 10 10 9 8 8 7 7 6 6 7 8 9 6 4 4 4 5 4 4 4 3 2 2 2 2 3 4 5
7 8 8 7 7 7 7 7 8 9 10 10 11 10 10 10 9 9 8 8 9 8 9 8 6 8 10 10 7 6 8 9 6 4 3 2 2 2 3 3 4 5 5
8 9 8 7 7 7 7 7 8 8 9 10 10 10 10 11 10 10 9 9 9 8 8 7 8 9 10 8 9 10 10 9 7 6 3 2 2 3 3 3 5 5 6
Wind_Direction
187 191 190 198 198 192 194 202 200 202 198 191 195 186 185 185 173 136 124 88 74 46 49 77 54 60 61 49 61 67 71 105 121 346 354 360 30 43 20 11 3 354 285
188 186 193 196 190 193 208 214 209 204 201 197 192 186 191 186 181 171 179 149 128 108 95 108 75 84 68 56 67 69 71 94 126 114 356 1 16 354 19 13 1 1 317
183 185 192 196 195 201 211 213 209 204 202 201 186 190 192 187 187 189 179 172 180 191 175 159 166 127 92 72 76 78 73 77 97 120 32 350 357 4 32 17 7 354 334
184 187 194 201 203 207 207 205 207 203 199 200 195 197 193 188 185 184 175 172 184 211 200 184 177 163 163 149 119 119 110 91 86 95 73 0 356 350 47 27 357 348 336
186 193 201 204 204 204 202 204 205 203 204 199 194 198 195 186 188 181 178 174 174 188 212 208 205 195 185 174 154 150 132 117 103 97 80 23 2 13 10 333 343 328 326
191 200 201 197 197 201 203 201 198 203 206 198 197 197 201 207 195 186 177 172 175 178 202 233 235 210 202 191 174 163 155 148 154 150 161 184 245 241 227 183 65 19 321
198 201 197 194 195 201 200 195 198 203 202 201 203 196 204 217 206 195 189 175 182 192 202 212 223 209 196 183 186 174 184 184 174 167 177 208 216 215 184 189 200 206 243
201 202 198 193 196 197 194 198 202 197 197 202 205 202 206 223 215 207 199 183 195 210 209 204 210 223 205 186 177 179 229 246 213 188 194 214 218 213 191 190 200 238 278
204 205 202 195 194 192 196 201 199 192 198 202 200 201 207 228 221 212 190 169 196 227 232 214 200 208 219 192 167 174 208 294 265 217 210 227 242 227 178 136 127 85 318
211 209 204 197 195 197 200 198 192 189 198 198 204 204 203 218 219 208 185 166 185 212 242 239 209 197 204 185 170 170 185 229 240 58 30 349 341 337 190 171 171 165 211
220 210 201 199 198 198 195 190 186 186 185 190 198 206 206 214 218 207 186 172 183 187 195 216 237 205 191 180 170 173 186 168 140 123 83 39 31 31 28 116 168 168 182
220 209 204 202 201 197 188 189 184 179 180 188 189 199 216 218 202 198 187 183 175 172 189 200 214 188 170 164 159 158 150 132 119 112 94 59 36 15 357 5 44 206 206
228 220 212 203 201 190 186 187 182 181 184 189 187 192 202 206 204 189 184 182 175 169 184 187 178 154 135 130 132 135 127 120 121 121 128 135 285 331 6 14 14 11 360
249 230 217 202 200 196 191 189 186 188 190 190 191 193 191 190 194 185 171 164 164 157 150 143 124 112 109 108 106 106 108 127 133 137 144 123 48 47 39 29 25 11 15
284 250 227 210 199 196 194 195 195 199 194 190 194 187 182 195 204 189 173 171 168 163 140 117 112 113 116 113 104 101 99 104 110 116 117 105 73 56 31 18 33 34 33
300 276 242 216 199 189 179 171 245 204 203 197 187 180 190 188 178 182 181 172 164 156 142 148 157 155 155 153 145 132 117 121 123 118 111 107 98 81 49 26 36 44 14
289 281 256 225 204 191 186 182 180 125 142 191 188 183 177 171 173 175 170 162 161 152 144 158 160 160 158 154 150 147 149 148 132 123 121 119 115 101 84 46 27 17 345
295 281 272 235 214 204 197 194 186 178 177 184 189 184 176 172 170 167 157 140 148 157 159 162 164 162 157 155 154 150 144 133 125 128 130 129 128 121 103 54 352 311 301
302 287 279 262 230 213 201 192 188 186 181 169 156 174 177 170 166 167 159 157 166 171 168 165 163 160 158 156 154 151 148 147 146 141 141 142 141 129 122 305 306 315 311
298 294 290 271 243 216 202 195 191 188 183 181 184 178 164 156 169 177 178 171 169 170 169 168 166 163 160 158 154 150 147 147 146 142 143 142 141 139 157 228 281 295 288
297 293 291 279 250 225 212 206 199 193 191 192 193 185 177 178 182 182 182 181 179 175 171 168 165 164 161 156 153 154 153 153 152 149 149 152 152 160 194 227 263 273 280
292 286 279 272 260 238 224 215 205 199 197 192 183 183 185 180 180 181 183 184 181 174 169 165 166 168 167 164 160 156 155 156 157 155 155 160 166 185 218 254 274 280 281
286 283 280 276 269 251 233 221 209 201 197 192 184 180 184 188 186 184 182 177 171 168 164 162 160 161 160 159 159 157 160 166 168 164 160 166 178 209 237 258 272 280 281
280 278 275 274 271 254 235 224 214 203 195 189 186 186 185 186 185 181 175 168 166 164 161 160 161 163 158 150 144 143 145 147 146 150 156 167 189 221 242 259 269 274 279
276 275 270 267 264 256 239 227 219 206 196 190 187 185 181 178 177 174 168 164 162 162 161 157 154 155 155 151 149 147 149 148 147 151 156 170 204 232 249 261 270 278 279
274 273 267 262 259 253 241 227 218 209 199 192 186 182 178 176 173 169 165 161 159 156 154 152 150 149 149 148 150 152 153 155 160 166 166 181 210 239 253 263 273 277 281